Weather in Mstera

Russia / Vladimir Oblast     56°22′31″N   41°55′34″E
temp.,
°C
wind,
m/s
gust,
m/s
humid.,
%
clouds,
%
prec.,
mm/h
press.,
hPa
HPBL,
m
25 february, thu
thu2500:00−17s4895100 0.5 1030419
03:00−16s4996100 1.1 1027452
06:00−16s51195100 2.1 1020484
09:00−14s51095100 4.8 1016475
12:00−10s3794100 2.4 1012388
15:00−7sse249499 3.1 1011241
18:00−8ese1297100 0.4 101123
21:00−8ese1197100 0.6 101124
26 february, fri
fri2600:00−6e1197100 0.4 101136
03:00−5ese2297100 0.8 101175
06:00−5ese2497100 0.3 1009110
09:00−4se3598100 0.8 1008146
12:00+2sw39100100 1.8 1003326
15:00+2wsw41399100 3.2 999422
18:00+2w61598100 2.6 996710
21:00+2w61492100 2.8 996890
27 february, sat
sat2700:00+1w61396100 0.1 995933
03:000wnw61397100 0.4 995982
06:000wnw61297100 0.3 995996
09:00−5nnw61188100 1.6 997667
12:00−7nnw5891100 0.3 999724
15:00−8nnw5889100 0.6 1002756
18:00−9n3890100 0.2 1005637
21:00−10n3895100 0.3 1008435
28 february, sun
sun2800:00−13nnw279691 0.0 1009217
03:00−15nnw269662 0.1 1012185
06:00−16nnw26960 0.0 1013193
09:00−15nnw36910 0.0 1015306
12:00−10nnw368880 0.0 1016502
15:00−8nnw478890 0.1 1017634
18:00−9nnw3892100 0.1 1018579
21:00−11nnw2794100 0.1 1021159
1 march, mon
mon100:00−14n22952 0.0 102328
03:00−14nnw229630 0.0 102420
06:00−14nw129782 0.0 102520
09:00−11w119691 0.1 102690
12:00−6w249094 0.0 1026343
15:00−3wsw369193 0.0 1024450
18:00−4wsw31094100 0.0 1022432
21:00−2wsw41195100 0.2 1019555